Location: *
(46.1006°N, 1.8394°E)
Time: 06:24:55
(UTC+00:00)

SL-08 RB Rocket - Pass Details

Date: 20 September 2019
Orbit: 646 x 685 km, 97.9° (Epoch: 17 October)

Event Time Altitude Azimuth Distance (km) Brightness Sun altitude
Exits shadow 20:01:12 53° 150° (SSE) 842 3.9 -21.9°
Maximum altitude 20:02:16 80° 75° (ENE) 703 3.6 -22.1°
Drops below altitude 10° 20:06:58 10° 349° (N) 2,141 6.8 -22.8°
Sets 20:09:13 0° 349° (NNW) 3,058 7.7 -23.2°
